Location: Six Mile Lake
(44.9000°N, 79.7170°W)
Time: 03:49:42
(UTC-04:00)

AO-92 - Pass Details

Date: 01 July 2022
Orbit: 469 x 481 km, 97.4° (Epoch: 17 August)

Event Time Altitude Azimuth Distance (km) Brightness Sun altitude
Exits shadow 21:59:38 - 99° (E) 1,976 ? -7.8°
Reaches altitude 10° 22:01:23 10° 76° (ENE) 1,659 ? -8.0°
Maximum altitude 22:02:13 11° 62° (ENE) 1,619 ? -8.1°
Drops below altitude 10° 22:03:04 10° 48° (NE) 1,664 ? -8.2°
Sets 22:06:40 0° 10° (N) 2,556 ? -8.7°
